CZ-6A DEB, 56650

Orbit data source: Space-Track

CZ-6A DEB, 56650 is space debris in SSO originally from a launch on Fri, 11 Nov 2022 UTC launched from the Taiyaun Space Center, China (TSC). Debris objects in space refer to the collection of defunct objects orbiting the Earth. Examples of debris include non-operational satellites, rocket bodies, and fragments generated from explosions, collisions, or faulty payload assembly.

Loading next visibility...
Identifier
56650, 2022-151AGA
Orbit
SSO
Country
Flag of CNCN / PRC
Related business
Manufacturer
SAST
Mission
Spacecraft
Bus & Motor
Unknown
Mass
Unknown
Launch date (UTC)
2022-11-11 (3 years ago)
Launch vehicle
Unknown
Launch site
Taiyaun Space Center, China (TSC)
Object type
Payload
Rocket body
Debris
Shape & HBR
Unknown shape, 0.1 m
Radar Cross Section
Small (<0.1 m²)

Expand to show TLE details & history
Last TLE update: 18 hours ago

TLE from 18 hours ago
0 CZ-6A DEB
1 56650U 22151AGA 25348.95499772  .00001993  00000-0  10271-2 0  9992
2 56650  98.8287 350.6776 0046082 126.8543 233.6869 14.15731025144789
Epoch: 2025-12-14T22:55Z
TLE epoch observation values (Epoch: 2025-12-14T22:55:11.803Z)
Latitude
-0.00004°
Longitude
-76.98207°
Altitude
862.532 km
Speed
7.411 km/s
True Right ascension
23h 22m 42s
True Declination
0° 00' 00"
Sunlit
Object was in daylight at epoch
Visualization orbit readout
Latitude
Unknown
Longitude
Unknown
Altitude
Unknown
Speed
Unknown
Apparent Right ascension
Unknown
Apparent Declination
Unknown
Sunlit
N/A
Visualization observer readout
Local Sidereal Time
15:06:12
Azimuth
Unknown
Elevation
Unknown
Doppler factor
Unknown
Orbital elements
Apogee altitude
870.245 km
Perigee altitude
803.748 km
Semi-major axis
7,215.133 km
Eccentricity
0.00461
Inclination
98.8287°
RAAN
350.6776°
Arg. of periapsis
126.8543°
True anomaly
233.26284°
Mean anomaly
233.6869°
Eccentric anomaly
233.47473°
Mean motion
3.54141 °/min
Orbital period
101.65 mins
BSTAR
0.0010271
Loading maneuver chart data...
Computing Atmospheric mass density...
Loading historical data...
Loading historical data...
Loading historical data...
Loading historical data...
Loading historical data...
Loading historical data...
Loading historical data...

Documentation

Showing up to 5 results
|